TimeCDT,TemperatureF,Dew PointF,Humidity,Sea Level PressureIn,VisibilityMPH,Wind Direction,Wind SpeedMPH,Gust SpeedMPH,PrecipitationIn,Events,Conditions,WindDirDegrees,DateUTC
12:51 AM,62.1,54.0,75,30.19,10.0,Calm,Calm,-,N/A,,Clear,0,2013-10-25 05:51:00
1:51 AM,59.0,53.1,81,30.20,10.0,NW,3.5,-,N/A,,Clear,320,2013-10-25 06:51:00
2:51 AM,57.0,53.1,87,30.20,10.0,NW,3.5,-,N/A,,Clear,310,2013-10-25 07:51:00
3:51 AM,55.9,52.0,87,30.20,10.0,WNW,4.6,-,N/A,,Clear,300,2013-10-25 08:51:00
4:51 AM,55.0,52.0,89,30.21,10.0,WNW,3.5,-,N/A,,Clear,300,2013-10-25 09:51:00
5:51 AM,55.0,52.0,89,30.22,10.0,WNW,4.6,-,N/A,,Clear,300,2013-10-25 10:51:00
6:51 AM,54.0,51.1,90,30.23,10.0,NW,3.5,-,N/A,,Clear,310,2013-10-25 11:51:00
7:51 AM,55.0,52.0,89,30.25,10.0,WNW,4.6,-,N/A,,Clear,300,2013-10-25 12:51:00
8:51 AM,62.1,57.0,84,30.26,10.0,NNW,3.5,-,N/A,,Clear,340,2013-10-25 13:51:00
9:51 AM,69.1,60.1,73,30.27,10.0,ENE,3.5,-,N/A,,Partly Cloudy,70,2013-10-25 14:51:00
10:51 AM,73.0,60.1,64,30.28,10.0,East,8.1,-,N/A,,Scattered Clouds,100,2013-10-25 15:51:00
11:51 AM,77.0,61.0,58,30.27,10.0,ESE,12.7,-,N/A,,Scattered Clouds,110,2013-10-25 16:51:00
12:51 PM,77.0,59.0,54,30.25,10.0,SSE,8.1,-,N/A,,Mostly Cloudy,160,2013-10-25 17:51:00
1:51 PM,79.0,60.1,52,30.22,10.0,ESE,10.4,-,N/A,,Mostly Cloudy,120,2013-10-25 18:51:00
2:51 PM,79.0,57.9,48,30.19,10.0,SE,11.5,-,N/A,,Mostly Cloudy,140,2013-10-25 19:51:00
3:51 PM,80.1,57.9,47,30.17,10.0,SSE,8.1,-,N/A,,Mostly Cloudy,160,2013-10-25 20:51:00
4:51 PM,80.1,57.9,47,30.16,10.0,South,10.4,-,N/A,,Mostly Cloudy,170,2013-10-25 21:51:00
5:51 PM,79.0,60.1,52,30.16,10.0,ESE,13.8,-,N/A,,Mostly Cloudy,120,2013-10-25 22:51:00
6:51 PM,75.0,61.0,62,30.16,10.0,East,9.2,-,N/A,,Scattered Clouds,100,2013-10-25 23:51:00
7:51 PM,73.0,61.0,66,30.17,10.0,ESE,6.9,-,0.00,,Scattered Clouds,120,2013-10-26 00:51:00
8:51 PM,73.0,62.1,68,30.19,10.0,SE,10.4,-,N/A,,Mostly Cloudy,130,2013-10-26 01:51:00
9:51 PM,72.0,63.0,73,30.19,10.0,SE,11.5,-,N/A,,Mostly Cloudy,130,2013-10-26 02:51:00
10:51 PM,69.1,63.0,81,30.19,10.0,SE,8.1,-,N/A,,Mostly Cloudy,130,2013-10-26 03:51:00
11:37 PM,69.8,64.4,83,30.23,10.0,ESE,6.9,-,N/A,,Mostly Cloudy,120,2013-10-26 04:37:00
11:51 PM,69.1,64.0,84,30.18,10.0,ESE,8.1,-,N/A,,Mostly Cloudy,120,2013-10-26 04:51:00